Quillayute, WA
on Sunday, December 30, 2012

Sunday
Previous Day Next Day
Daily Summary
 ActualAverageRecord
Temperature
Mean Temperature °F 40°F  
Max Temperature 47°F 46°F 53°F (1976)
Min Temperature 34°F 35°F 13°F (1968)
Degree Days
Heating Degree Days 24 25  
Month to date heating degree days 742  
Since 1 July heating degree days 2456  
Cooling Degree Days 0 0  
Month to date cooling degree days 0  
Year to date cooling degree days 19  
Moisture
Dew Point 37°F   
Average Humidity 90    
Maximum Humidity 100    
Minimum Humidity 73    
Precipitation
Precipitation 0.00 in 0.39 in 1.28 in (1996)
Month to date precipitation 12.58  
Year to date precipitation 99.13  
Wind
Wind Speed 2 mph   
Max Wind Speed 8 mph   
Max Gust Speed 9 mph   
Visibility 6 miles   
Events     

Key: T is trace of precipitation, MM is missing value
Source: NWS Daily Summary
Time(PST)TemperatureDew PointHumidity Pressure Visibility Wind DirectionWind SpeedGust SpeedPrecipitationEvents Conditions
12:53 AM 37.9°F 37.0°F 97% 30.21 in 6.0 miles NE 4.6 mph - N/A   Overcast
1:23 AM 37.4°F 37.4°F 100% 30.20 in 6.0 miles NE 4.6 mph - N/A   Overcast
1:53 AM 39.0°F 37.0°F 93% 30.22 in 7.0 miles East 4.6 mph - N/A   Overcast
2:03 AM 39.2°F 37.4°F 93% 30.22 in 7.0 miles East 5.8 mph - N/A   Overcast
2:53 AM 37.0°F 36.0°F 96% 30.25 in 7.0 miles ENE 3.5 mph - N/A   Mostly Cloudy
3:15 AM 37.4°F 35.6°F 93% 30.24 in 6.0 miles Calm Calm - N/A   Overcast
3:49 AM 37.4°F 35.6°F 93% 30.25 in 6.0 miles ENE 4.6 mph - N/A   Overcast
3:53 AM 37.0°F 36.0°F 96% 30.25 in 6.0 miles Calm Calm - N/A   Overcast
4:53 AM 37.9°F 37.0°F 97% 30.24 in 6.0 miles Calm Calm - N/A   Overcast
5:53 AM 37.9°F 36.0°F 93% 30.25 in 7.0 miles Calm Calm - N/A   Overcast
6:53 AM 37.9°F 37.0°F 97% 30.25 in 6.0 miles Calm Calm - N/A   Overcast
7:53 AM 37.0°F 36.0°F 96% 30.26 in 6.0 miles Calm Calm - N/A   Overcast
8:53 AM 39.0°F 36.0°F 89% 30.26 in 5.0 miles East 3.5 mph - N/A   Overcast
9:53 AM 39.9°F 37.9°F 93% 30.28 in 5.0 miles ENE 5.8 mph - N/A   Overcast
10:53 AM 42.1°F 37.9°F 85% 30.30 in 5.0 miles ENE 4.6 mph - N/A   Overcast
11:53 AM 44.1°F 39.0°F 82% 30.28 in 6.0 miles Calm Calm - N/A   Haze
12:53 PM 46.0°F 37.9°F 73% 30.27 in 6.0 miles Calm Calm - N/A   Haze
1:53 PM 45.0°F 37.9°F 76% 30.25 in 6.0 miles Calm Calm - N/A   Haze
2:53 PM 46.0°F 37.9°F 73% 30.24 in 6.0 miles Calm Calm - N/A   Haze
3:25 PM 44.6°F 39.2°F 81% 30.23 in 5.0 miles Calm Calm - N/A   Haze
3:48 PM 44.6°F 37.4°F 76% 30.23 in 5.0 miles Calm Calm - N/A   Haze
3:53 PM 43.0°F 37.9°F 82% 30.24 in 5.0 miles Calm Calm - N/A   Haze
4:25 PM 39.2°F 39.2°F 100% 30.25 in 4.0 miles Calm Calm - N/A   Mostly Cloudy
4:53 PM 41.0°F 37.0°F 86% 30.25 in 6.0 miles ENE 4.6 mph - N/A   Overcast
5:07 PM 39.2°F 37.4°F 93% 30.25 in 6.0 miles NE 4.6 mph - N/A   Overcast
5:34 PM 39.2°F 37.4°F 93% 30.25 in 6.0 miles Calm Calm - N/A   Overcast
5:53 PM 39.9°F 37.0°F 89% 30.25 in 6.0 miles SE 3.5 mph - N/A   Overcast
6:00 PM 39.2°F 35.6°F 87% 30.25 in 6.0 miles ESE 3.5 mph - N/A   Overcast
6:15 PM 39.2°F 35.6°F 87% 30.25 in 6.0 miles Calm Calm - N/A   Overcast
6:53 PM 39.0°F 36.0°F 89% 30.26 in 6.0 miles Calm Calm - N/A   Overcast
7:53 PM 37.9°F 36.0°F 93% 30.25 in 6.0 miles ENE 3.5 mph - N/A   Mostly Cloudy
8:01 PM 37.4°F 35.6°F 93% 30.24 in 6.0 miles Calm Calm - N/A   Scattered Clouds
8:53 PM 37.0°F 35.1°F 93% 30.25 in 6.0 miles Calm Calm - N/A   Clear
9:53 PM 36.0°F 35.1°F 97% 30.26 in 6.0 miles Calm Calm - N/A   Scattered Clouds
10:53 PM 36.0°F 35.1°F 97% 30.26 in 6.0 miles East 4.6 mph - N/A   Overcast
11:53 PM 34.0°F 33.1°F 96% 30.26 in 6.0 miles ENE 5.8 mph - N/A   Scattered Clouds
Moon Phase
Dec. 30 Jan. 04 Jan. 11 Jan. 18 Jan. 26
Sunrise:08:07 AM (PST) Moon Rise:07:24 PM (PST)12/30
Sunset:04:34 PM (PST) Moon Set:09:08 AM (PST)12/30

Copyright © 2014 The Weather Underground, Inc.